TimeEDT,TemperatureF,Dew PointF,Humidity,Sea Level PressureIn,VisibilityMPH,Wind Direction,Wind SpeedMPH,Gust SpeedMPH,PrecipitationIn,Events,Conditions,WindDirDegrees,DateUTC
12:15 AM,62.6,60.8,94,30.12,5.0,East,3.5,-,N/A,,Mostly Cloudy,80,2012-10-26 04:15:00
12:35 AM,62.6,60.8,94,30.12,5.0,Calm,Calm,-,N/A,,Overcast,0,2012-10-26 04:35:00
12:55 AM,62.6,60.8,94,30.12,5.0,East,3.5,-,N/A,,Overcast,90,2012-10-26 04:55:00
1:15 AM,62.6,60.8,94,30.12,4.0,ENE,3.5,-,N/A,,Overcast,70,2012-10-26 05:15:00
1:35 AM,62.6,60.8,94,30.12,4.0,ENE,4.6,-,N/A,,Overcast,60,2012-10-26 05:35:00
2:15 AM,62.6,60.8,94,30.12,5.0,ENE,3.5,-,N/A,,Overcast,60,2012-10-26 06:15:00
2:35 AM,62.6,60.8,94,30.12,5.0,East,3.5,-,N/A,,Overcast,80,2012-10-26 06:35:00
2:55 AM,62.6,60.8,94,30.13,5.0,ENE,4.6,-,N/A,,Overcast,60,2012-10-26 06:55:00
3:35 AM,62.6,60.8,94,30.12,5.0,NE,5.8,-,N/A,,Overcast,40,2012-10-26 07:35:00
3:55 AM,62.6,60.8,94,30.12,5.0,NE,4.6,-,N/A,,Overcast,50,2012-10-26 07:55:00
4:15 AM,62.6,60.8,94,30.12,5.0,NE,4.6,-,N/A,,Overcast,50,2012-10-26 08:15:00
4:35 AM,62.6,60.8,94,30.12,7.0,NE,4.6,-,N/A,,Overcast,50,2012-10-26 08:35:00
4:55 AM,62.6,60.8,94,30.12,5.0,Calm,Calm,-,N/A,,Overcast,0,2012-10-26 08:55:00
5:15 AM,62.6,59.0,88,30.12,5.0,Calm,Calm,-,N/A,,Overcast,0,2012-10-26 09:15:00
5:35 AM,62.6,60.8,94,30.13,5.0,Calm,Calm,-,N/A,,Overcast,0,2012-10-26 09:35:00
5:55 AM,62.6,60.8,94,30.13,7.0,Calm,Calm,-,N/A,,Overcast,0,2012-10-26 09:55:00
6:15 AM,62.6,60.8,94,30.13,7.0,Calm,Calm,-,N/A,,Overcast,0,2012-10-26 10:15:00
6:35 AM,62.6,60.8,94,30.14,7.0,Calm,Calm,-,N/A,,Overcast,0,2012-10-26 10:35:00
6:55 AM,62.6,60.8,94,30.14,5.0,Calm,Calm,-,N/A,,Overcast,0,2012-10-26 10:55:00
7:15 AM,62.6,60.8,94,30.14,4.0,North,4.6,-,N/A,,Overcast,360,2012-10-26 11:15:00
7:35 AM,62.6,60.8,94,30.15,4.0,North,4.6,-,N/A,,Overcast,10,2012-10-26 11:35:00
8:15 AM,62.6,60.8,94,30.15,1.8,North,3.5,-,N/A,,Overcast,10,2012-10-26 12:15:00
8:55 AM,62.6,60.8,94,30.16,1.5,NE,5.8,-,N/A,,Overcast,40,2012-10-26 12:55:00
9:55 AM,62.6,60.8,94,30.16,4.0,NNE,5.8,-,N/A,,Overcast,20,2012-10-26 13:55:00
10:15 AM,64.4,60.8,88,30.16,5.0,NNE,4.6,-,N/A,,Mostly Cloudy,20,2012-10-26 14:15:00
10:35 AM,66.2,60.8,83,30.15,7.0,NNE,5.8,-,N/A,,Scattered Clouds,30,2012-10-26 14:35:00
10:55 AM,69.8,57.2,64,30.14,10.0,ENE,3.5,-,N/A,,Clear,60,2012-10-26 14:55:00
11:15 AM,69.8,55.4,60,30.13,10.0,NNE,4.6,-,N/A,,Clear,20,2012-10-26 15:15:00
11:35 AM,71.6,57.2,60,30.13,10.0,NNE,6.9,-,N/A,,Clear,30,2012-10-26 15:35:00
11:55 AM,71.6,55.4,57,30.12,10.0,North,5.8,-,N/A,,Clear,10,2012-10-26 15:55:00
12:15 PM,73.4,57.2,57,30.11,10.0,NNE,8.1,-,N/A,,Clear,20,2012-10-26 16:15:00
12:35 PM,73.4,55.4,53,30.09,10.0,North,4.6,-,N/A,,Scattered Clouds,10,2012-10-26 16:35:00
12:55 PM,73.4,55.4,53,30.08,10.0,North,8.1,-,N/A,,Clear,10,2012-10-26 16:55:00
1:15 PM,75.2,55.4,50,30.07,10.0,East,4.6,-,N/A,,Scattered Clouds,80,2012-10-26 17:15:00
1:35 PM,75.2,55.4,50,30.06,7.0,ENE,6.9,-,N/A,,Mostly Cloudy,70,2012-10-26 17:35:00
1:55 PM,75.2,55.4,50,30.06,7.0,NNE,4.6,-,N/A,,Scattered Clouds,30,2012-10-26 17:55:00
2:15 PM,75.2,55.4,50,30.06,10.0,ENE,8.1,-,N/A,,Mostly Cloudy,70,2012-10-26 18:15:00
2:35 PM,75.2,55.4,50,30.05,10.0,East,8.1,-,N/A,,Overcast,80,2012-10-26 18:35:00
2:55 PM,73.4,57.2,57,30.05,10.0,East,6.9,-,N/A,,Overcast,80,2012-10-26 18:55:00
3:15 PM,71.6,57.2,60,30.05,10.0,ENE,8.1,-,N/A,,Overcast,70,2012-10-26 19:15:00
3:35 PM,71.6,55.4,57,30.04,10.0,NE,5.8,-,N/A,,Overcast,50,2012-10-26 19:35:00
3:55 PM,73.4,55.4,53,30.04,7.0,ENE,6.9,-,N/A,,Overcast,70,2012-10-26 19:55:00
4:15 PM,71.6,57.2,60,30.04,10.0,East,9.2,-,N/A,,Overcast,80,2012-10-26 20:15:00
4:35 PM,71.6,57.2,60,30.03,10.0,NE,8.1,-,N/A,,Scattered Clouds,40,2012-10-26 20:35:00
4:55 PM,71.6,57.2,60,30.02,10.0,ENE,4.6,-,N/A,,Clear,60,2012-10-26 20:55:00
5:15 PM,69.8,57.2,64,30.02,10.0,ENE,6.9,-,N/A,,Clear,60,2012-10-26 21:15:00
5:35 PM,69.8,57.2,64,30.03,10.0,NE,5.8,-,N/A,,Mostly Cloudy,50,2012-10-26 21:35:00
5:55 PM,69.8,57.2,64,30.03,10.0,ENE,3.5,-,N/A,,Overcast,60,2012-10-26 21:55:00
6:15 PM,68.0,57.2,68,30.03,10.0,NE,3.5,-,N/A,,Scattered Clouds,50,2012-10-26 22:15:00
6:35 PM,66.2,57.2,73,30.03,10.0,NE,5.8,-,N/A,,Scattered Clouds,40,2012-10-26 22:35:00
6:55 PM,66.2,57.2,73,30.04,10.0,NNE,4.6,-,N/A,,Clear,20,2012-10-26 22:55:00
7:15 PM,66.2,57.2,73,30.04,10.0,North,3.5,-,N/A,,Clear,10,2012-10-26 23:15:00
7:35 PM,66.2,57.2,73,30.04,10.0,NE,5.8,-,N/A,,Scattered Clouds,40,2012-10-26 23:35:00
7:55 PM,66.2,59.0,78,30.04,10.0,NNE,4.6,-,N/A,,Mostly Cloudy,20,2012-10-26 23:55:00
8:15 PM,66.2,57.2,73,30.04,10.0,NNE,4.6,-,N/A,,Mostly Cloudy,30,2012-10-27 00:15:00
8:35 PM,64.4,59.0,83,30.04,10.0,NNE,6.9,-,N/A,,Mostly Cloudy,30,2012-10-27 00:35:00
8:55 PM,64.4,59.0,83,30.04,10.0,North,6.9,-,N/A,,Mostly Cloudy,10,2012-10-27 00:55:00
9:15 PM,64.4,60.8,88,30.04,7.0,NNE,5.8,-,N/A,,Overcast,20,2012-10-27 01:15:00
9:35 PM,64.4,60.8,88,30.03,7.0,NNE,6.9,-,N/A,,Drizzle,30,2012-10-27 01:35:00
9:55 PM,64.4,60.8,88,30.03,5.0,NNE,4.6,-,N/A,,Drizzle,20,2012-10-27 01:55:00
10:15 PM,64.4,60.8,88,30.03,5.0,NNE,6.9,-,N/A,Rain,Light Rain,20,2012-10-27 02:15:00
10:35 PM,64.4,62.6,94,30.02,7.0,NNE,6.9,-,N/A,,Overcast,20,2012-10-27 02:35:00
10:55 PM,64.4,62.6,94,30.01,7.0,North,4.6,-,N/A,,Overcast,10,2012-10-27 02:55:00
11:15 PM,64.4,62.6,94,30.01,5.0,North,5.8,-,N/A,,Light Drizzle,10,2012-10-27 03:15:00
11:35 PM,62.6,60.8,94,30.00,4.0,North,4.6,-,N/A,,Drizzle,10,2012-10-27 03:35:00
11:55 PM,62.6,60.8,94,30.00,5.0,NNE,4.6,-,N/A,,Light Drizzle,20,2012-10-27 03:55:00